We konden geen weer-waarchuwingen ophalen. Ga rechtstreeks naar de Meteoalarm site : www.meteoalarm.eu en controleer daar .



Onweer radar Meer informatie blitzortung!


Regen radar Meer informatie rain snow radar


Bezoek onze andere website:

Template documentation
and downloads

And another site



15 daagse weersverwachting Verona (IT)

  • Overzicht
  • Per uur
  • 15 dagen
  • Extra
  • Vergelijk
  • Kaarten
  • Dagkaart
  • Meer »
  • Info
  • Statistieken
  • Directe link
    Temp 6h Neerslag Wind  
 06:21     20:20    Daglengte: 13:59 Vandaag
14:00
32°
 
2
20:00
29°
 
5
 06:22     20:18    Daglengte: 13:56 Morgen
02:00
24°
 
2
08:00
24°
2.2 mm
3
warningclass
14:00
27°
7.4 mm
4
warningclass
20:00
23°
38.9 mm
3
warningclass
 06:23     20:16    Daglengte: 13:53 Vrijdag 19 Aug
02:00
21°
80.6 mm
2
08:00
20°
67.9 mm
1
warningclass
14:00
23°
77.0 mm
2
20:00
24°
45.3 mm
1
 06:24     20:15    Daglengte: 13:51 Zaterdag 20 Aug
02:00
20°
 
1
08:00
20°
 
1
Locatie info
Region: Veneto
Latitude: 45.4383°N
Longitude: 10.9917°E
62 masl
Postcode: 37122
Temp/Neerslag /Baro Onweer/Dauwpunt
    Temp Baro 1h Neerslag Dauwpunt Wind UV Bewolking  
 06:21     20:20    Daglengte: 13:59 Vandaag
13:00
31°
1012.5 hPa   16.3°
3
Windvlaag: 3 m/s
39%
14:00
32°
Voelt als: 31.8°
1012.1 hPa   15.9°
2
Windvlaag: 2.9 m/s
37%
15:00
32°
Voelt als: 32.2°
1011.7 hPa   15.4°
2
Windvlaag: 2.8 m/s
36%
16:00
33°
Voelt als: 32.8°
1011.1 hPa   15.9°
2
Windvlaag: 0.3 m/s
44%
17:00
33°
1010.7 hPa
12%
18.6°
4
Windvlaag: -1.6 m/s
75%
18:00
32°
1010.8 hPa
78%
17.4°
4
Windvlaag: -2.2 m/s
85%
19:00
31°
1010.6 hPa
26%
17.2°
5
Windvlaag: -3.5 m/s
78%
20:00
29°
1010.9 hPa
34%
15.6°
5
Windvlaag: -5.6 m/s
82%
21:00
28°
1011.2 hPa
41%
16.3°
4
Windvlaag: -5.1 m/s
59%
22:00
27°
1011.4 hPa
70%
17.6°
4
Windvlaag: -4.1 m/s
65%
23:00
26°
1011.4 hPa
35%
18.6°
3
Windvlaag: -3.2 m/s
53%
 06:22     20:18    Daglengte: 13:56 Morgen
00:00
26°
1011.2 hPa
74%
19.1°
2
Windvlaag: -0.7 m/s
66%
01:00
25°
1011.1 hPa
32%
19.1°
2
Windvlaag: 1.7 m/s
56%
02:00
24°
1010.9 hPa
77%
17.6°
2
Windvlaag: 2.1 m/s
58%
03:00
24°
1010.6 hPa
30%
17.0°
2
Windvlaag: 0.4 m/s
50%
04:00
23°
1010.5 hPa
18%
17.3°
3
Windvlaag: -2 m/s
28%
05:00
23°
1010.3 hPa
82%
18.2°
3
Windvlaag: 0.6 m/s
81% warningclass
06:00
23°
1010.2 hPa
82%
17.6°
3
Windvlaag: 1.2 m/s
83%
07:00
23°
1010.5 hPa
82%
17.4°
4
Windvlaag: 4.8 m/s
86%
08:00
24°
1011.0 hPa 2.2 mm
82%
17.4°
3
Windvlaag: 3.3 m/s
84% warningclass
09:00
24°
1010.7 hPa 2.2 mm
82%
16.7°
3
Windvlaag: -1.2 m/s
86% warningclass
10:00
24°
1010.8 hPa 1.6 mm
82%
15.2°
3
Windvlaag: -3.3 m/s
81% warningclass
11:00
24°
1010.3 hPa 3.6 mm
82%
14.0°
5
Windvlaag: 2.7 m/s
85% warningclass
12:00
25°
1010.6 hPa
82%
17.3°
4
Windvlaag: 1.2 m/s
65%
13:00
26°
1010.0 hPa
81%
17.5°
4
Windvlaag: -0.5 m/s
78% warningclass
14:00
27°
1010.0 hPa
82%
16.6°
4
Windvlaag: 1.4 m/s
85% warningclass
15:00
25°
1009.7 hPa 11.2 mm
82%
17.0°
4
Windvlaag: 0.1 m/s
33%
16:00
25°
1009.5 hPa
82%
18.3°
5
Windvlaag: 1.8 m/s
86%
17:00
25°
1008.8 hPa
82%
16.7°
4
Windvlaag: 1.5 m/s
80%
18:00
25°
1008.6 hPa
82%
17.8°
3
Windvlaag: 0 m/s
78% warningclass
19:00
24°
1008.5 hPa 14.0 mm
82%
16.3°
3
Windvlaag: 5.6 m/s
77% warningclass
20:00
23°
1008.5 hPa 13.7 mm
82%
17.0°
3
Windvlaag: 4.5 m/s
80% warningclass
21:00
22°
1008.7 hPa 13.6 mm
82%
17.8°
2
Windvlaag: 2.2 m/s
72% warningclass
22:00
21°
1008.9 hPa 13.0 mm
82%
18.5°
2
Windvlaag: 2.4 m/s
84% warningclass
23:00
21°
1009.3 hPa 13.7 mm
82%
17.9°
3
Windvlaag: 1.4 m/s
86%
 06:23     20:16    Daglengte: 13:53 Vrijdag 19 Aug
00:00
21°
1009.3 hPa 14.1 mm
82%
17.5°
2
Windvlaag: 0.2 m/s
84%
01:00
21°
1008.8 hPa 13.4 mm
82%
17.1°
2
Windvlaag: 1.3 m/s
84% warningclass
02:00
21°
1008.2 hPa 12.8 mm
82%
18.3°
2
Windvlaag: -0.6 m/s
83%
03:00
20°
1008.0 hPa
82%
18.6°
1
Windvlaag: -0.6 m/s
72%
04:00
20°
1008.2 hPa 14.2 mm
82%
18.9°
1
Windvlaag: -1 m/s
83% warningclass
05:00
19°
1007.7 hPa 13.5 mm
100%
15.4°
1
Windvlaag: -1.9 m/s
98%
06:00
19°
1008.0 hPa 13.3 mm
100%
14.7°
2
Windvlaag: -0.7 m/s
98% warningclass
07:00
19°
1008.6 hPa 14.3 mm
100%
16.1°
2
Windvlaag: -3 m/s
99%
08:00
20°
1008.8 hPa 12.7 mm
100%
14.9°
1
Windvlaag: -2.8 m/s
100% warningclass
09:00
20°
1009.4 hPa 13.8 mm
100%
15.0°
2
Windvlaag: -0.1 m/s
100% warningclass
10:00
20°
1009.4 hPa 13.0 mm
100%
16.3°
2
Windvlaag: 0.1 m/s
100% warningclass
11:00
20°
1009.7 hPa 13.9 mm
95%
18.1°
3
Windvlaag: 0 m/s
98%
12:00
21°
1010.0 hPa 13.7 mm
100%
16.9°
2
Windvlaag: 0.2 m/s
100% warningclass
13:00
22°
1010.0 hPa 22.6 mm
99%
14.4°
2
Windvlaag: 2.3 m/s
93%
14:00
23°
1009.8 hPa
41%
12.0°
2
Windvlaag: 1.5 m/s
74%
15:00
24°
1009.7 hPa 22.6 mm
84%
11.7°
1
Windvlaag: 1.2 m/s
73%
16:00
25°
1009.5 hPa 22.7 mm
42%
12.1°
1
Windvlaag: 1.1 m/s
81%
17:00
25°
1009.5 hPa
41%
11.8°
1
Windvlaag: 0.6 m/s
80%
18:00
25°
1009.4 hPa
36%
11.5°
1
Windvlaag: 1 m/s
62%
19:00
25°
1009.5 hPa
29%
12.4°
2
Windvlaag: 0.8 m/s
24%
20:00
24°
1009.8 hPa
21%
13.0°
1
Windvlaag: 1.2 m/s
35%
21:00
23°
1010.4 hPa
21%
12.7°
2
Windvlaag: 1.2 m/s
36%
22:00
22°
1011.0 hPa
21%
13.5°
1
Windvlaag: 0.9 m/s
46%
23:00
22°
1011.3 hPa
21%
12.4°
1
Windvlaag: 1.1 m/s
41%
 06:24     20:15    Daglengte: 13:51 Zaterdag 20 Aug
00:00
21°
1011.3 hPa
21%
10.3°
1
Windvlaag: 4.9 m/s
44%
01:00
20°
1011.2 hPa
21%
9.4°
1
Windvlaag: 5.2 m/s
15%
02:00
20°
1011.2 hPa
21%
9.2°
1
Windvlaag: 4.4 m/s
18%
03:00
20°
1011.1 hPa
21%
8.3°
1
Windvlaag: 3.7 m/s
15%
04:00
20°
1011.1 hPa
21%
8.3°
1
Windvlaag: 3 m/s
17%
05:00
19°
1011.0 hPa
21%
8.9°
1
Windvlaag: 2.6 m/s
17%
06:00
19°
1011.1 hPa
21%
8.4°
2
Windvlaag: 3.2 m/s
8%
07:00
19°
1011.7 hPa
21%
7.3°
2
Windvlaag: 4.1 m/s
6%
08:00
20°
1012.4 hPa
21%
7.9°
1
Windvlaag: 3 m/s
2%
09:00
22°
1012.7 hPa
21%
8.0°
1
Windvlaag: 1.5 m/s
0%
10:00
24°
1012.8 hPa
21%
7.0°
1
Windvlaag: 2 m/s
0%
11:00
26°
1012.9 hPa
21%
8.0°
1
Windvlaag: 2 m/s
1%
12:00
27°
Voelt als: 26.4°
1012.8 hPa
21%
8.3°
1
Windvlaag: 2.2 m/s
2%
Temp/Neerslag /Baro Onweer/Dauwpunt
    Temp Baro Neerslag Dauwpunt Wind Bewolking  
 06:21     20:20    Daglengte: 13:59 Vandaag
14:00
32°
Voelt als: 31.8°
1012.1 hPa   15.9°
2
37%
17:00
33°
1010.7 hPa   18.6°
4
75%
20:00
29°
1010.9 hPa   15.6°
5
82%
23:00
26°
1011.4 hPa   18.6°
3
53%
 06:22     20:18    Daglengte: 13:56 Morgen
02:00
24°
1010.9 hPa   17.6°
2
58%
05:00
23°
1010.3 hPa   18.2°
3
81% warningclass
08:00
24°
1011.0 hPa 2.2 mm 17.4°
3
84% warningclass
11:00
24°
1010.3 hPa 7.4 mm 14.0°
5
85% warningclass
14:00
27°
1010.0 hPa   16.6°
4
85% warningclass
17:00
25°
1008.8 hPa 11.2 mm 16.7°
4
80%
20:00
23°
1008.5 hPa 27.7 mm 17.0°
3
80% warningclass
23:00
21°
1009.3 hPa 40.3 mm 17.9°
3
86%
 06:23     20:16    Daglengte: 13:53 Vrijdag 19 Aug
02:00
21°
1008.2 hPa 40.3 mm 18.3°
2
83%
05:00
19°
1007.7 hPa 27.6 mm 15.4°
1
98%
08:00
20°
1008.8 hPa 40.3 mm 14.9°
1
100% warningclass
11:00
20°
1009.7 hPa 40.7 mm 18.1°
3
98%
14:00
23°
1009.8 hPa 36.3 mm 12.0°
2
74%
17:00
25°
1009.5 hPa 45.3 mm 11.8°
1
80%
20:00
24°
1009.8 hPa   13.0°
1
35%
23:00
22°
1011.3 hPa   12.4°
1
41%
 06:24     20:15    Daglengte: 13:51 Zaterdag 20 Aug
02:00
20°
1011.2 hPa   9.2°
1
18%
05:00
19°
1011.0 hPa   8.9°
1
17%
08:00
20°
1012.4 hPa   7.9°
1
2%
11:00
26°
1012.9 hPa   8.0°
1
1%
14:00
29°
Voelt als: 27.7°
1012.5 hPa   8.6°
1
7%
17:00
30°
Voelt als: 29.3°
1012.8 hPa 52.4 mm 14.9°
2
0%
20:00
25°
1012.8 hPa 52.4 mm 16.1°
1
0%
23:00
23°
1013.8 hPa 52.4 mm 13.7°
2
0%
 06:26     20:13    Daglengte: 13:47 Zondag 21 Aug
02:00
22°
1014.2 hPa 52.4 mm 12.6°
2
0%
05:00
21°
1014.1 hPa 52.4 mm 12.9°
2
0%
08:00
23°
1014.6 hPa 52.4 mm 15.2°
1
0%
11:00
27°
1014.4 hPa 52.4 mm 16.0°
2
0%
14:00
30°
1013.1 hPa 52.4 mm 16.2°
2
0%
17:00
30°
Voelt als: 30.1°
1011.4 hPa 52.5 mm 15.2°
1
1%
20:00
26°
1011.0 hPa 52.5 mm 15.8°
2
1%
23:00
22°
1011.6 hPa 52.7 mm 16.2°
2
1%
 06:27     20:11    Daglengte: 13:44 Maandag 22 Aug
02:00
21°
1011.6 hPa 53.7 mm 16.6°
2
1%
05:00
20°
1011.6 hPa 55.0 mm 16.8°
3
1%
08:00
21°
1013.0 hPa 55.7 mm 17.7°
2
1%
11:00
26°
1012.9 hPa 55.7 mm 14.7°
3
1%
14:00
27°
1013.0 hPa 56.0 mm 16.0°
3
1%
17:00
28°
Voelt als: 28.0°
1011.7 hPa 56.0 mm 14.4°
4
1%
20:00
24°
1012.2 hPa 56.1 mm 15.2°
2
1%
23:00
23°
1012.9 hPa 56.1 mm 13.8°
3
1%
 06:28     20:10    Daglengte: 13:42 Dinsdag 23 Aug
02:00
22°
1012.9 hPa 56.1 mm 12.9°
1
1%
05:00
22°
1012.8 hPa 56.1 mm 12.2°
2
1%
08:00
23°
1014.0 hPa 56.1 mm 14.0°
1
1%
11:00
27°
1014.2 hPa 56.1 mm 14.7°
2
1%
14:00
30°
Voelt als: 29.5°
1013.2 hPa 56.1 mm 13.8°
2
1%
17:00
30°
Voelt als: 29.5°
1012.6 hPa 56.1 mm 13.5°
1
0%
20:00
25°
1013.0 hPa 56.1 mm 14.3°
2
0%
23:00
24°
1014.2 hPa 56.1 mm 13.0°
2
0%
 06:29     20:08    Daglengte: 13:39 Woensdag 24 Aug
02:00
23°
1014.2 hPa 56.1 mm 11.4°
2
0%
05:00
22°
1013.8 hPa 56.1 mm 10.9°
2
1%
08:00
23°
1014.4 hPa 56.1 mm 13.4°
1
1%
11:00
29°
Voelt als: 28.0°
1014.5 hPa   12.8°
1
1%
14:00
31°
Voelt als: 30.0°
1013.6 hPa 112.2 mm 12.4°
2
1%
20:00
26°
1013.0 hPa 112.2 mm 12.6°
2
0%
 06:30     20:06    Daglengte: 13:36 Donderdag 25 Aug
02:00
24°
1014.2 hPa 112.2 mm 11.1°
2
0%
08:00
25°
1014.3 hPa 112.2 mm 13.5°
1
0%
14:00
32°
Voelt als: 31.3°
1014.2 hPa 112.2 mm 13.4°
3
0%
20:00
27°
1013.8 hPa 112.2 mm 15.4°
2
1%
 06:32     20:04    Daglengte: 13:32 Vrijdag 26 Aug
02:00
24°
1015.3 hPa 112.2 mm 14.3°
1
0%
08:00
25°
1015.8 hPa 112.2 mm 15.2°
1
0%
14:00
34°
Voelt als: 33.1°
1015.0 hPa 112.2 mm 13.8°
2
0%
20:00
29°
Voelt als: 28.3°
1014.4 hPa 112.2 mm 14.4°
2
0%
 06:33     20:02    Daglengte: 13:29 Zaterdag 27 Aug
02:00
25°
1016.0 hPa 112.2 mm 12.2°
2
1%
08:00
25°
1017.6 hPa 0.1 mm 14.4°
2
30%
14:00
34°
Voelt als: 32.7°
1016.2 hPa 0.1 mm 13.1°
2
28%
20:00
30°
Voelt als: 29.3°
1016.6 hPa 0.1 mm 12.6°
1
29%
 06:34     20:01    Daglengte: 13:27 Zondag 28 Aug
02:00
25°
1018.7 hPa 0.5 mm 13.8°
3
33%
08:00
25°
1019.0 hPa 0.4 mm 14.2°
2
29%
14:00
34°
Voelt als: 32.6°
1018.0 hPa 0.1 mm 13.1°
2
22%
20:00
30°
Voelt als: 29.4°
1017.8 hPa 0.2 mm 12.7°
1
32%
 06:35     19:59    Daglengte: 13:24 Maandag 29 Aug
02:00
25°
1019.7 hPa 0.2 mm 14.2°
3
32%
08:00
25°
1019.7 hPa 0.3 mm 14.4°
2
36%
14:00
34°
Voelt als: 32.7°
1018.4 hPa   13.5°
2
19%
20:00
30°
Voelt als: 29.6°
1017.8 hPa 0.1 mm 13.5°
0
21%
 06:37     19:57    Daglengte: 13:20 Dinsdag 30 Aug
02:00
25°
1019.4 hPa 0.8 mm 14.6°
3
35%
08:00
24°
1019.2 hPa 0.4 mm 14.6°
2
30%
14:00
33°
Voelt als: 32.3°
1017.5 hPa 0.1 mm 14.1°
2
28%
20:00
30°
Voelt als: 29.2°
1016.8 hPa 0.3 mm 13.6°
0
34%
 06:38     19:55    Daglengte: 13:17 Woensdag 31 Aug
02:00
25°
1018.3 hPa 0.9 mm 14.8°
2
41%
08:00
24°
1017.8 hPa 0.5 mm 14.6°
2
44%
14:00
33°
Voelt als: 31.9°
1016.1 hPa 0.2 mm 13.8°
2
28%
20:00
29°
Voelt als: 28.9°
1015.5 hPa 0.5 mm 13.9°
1
37%
 06:39     19:53    Daglengte: 13:14 Donderdag 01 Sep
02:00
24°
1017.1 hPa 1.3 mm 14.6°
2
44%
08:00
24°
1017.0 hPa 0.4 mm 14.0°
2
38%
  CAPE Lifted Index Hail Supercell Tornado SRH 3km CL BTM PRES CL TOP PRES Swiss DWD icon SMHI TS
 06:21     20:20    Daglengte: 13:59 Vandaag
13:00 977 J/kg -2.9 K 0 % 0 % 0 % 0 m²/s² 0 0 -0.32 3
14:00 882 J/kg -2.9 K 0 % 0 % 0 % 0 m²/s² 0 0 -0.59 3
15:00 917 J/kg -3.4 K 0 % 0 % 0 % 0 m²/s² 0 0 -1.93 3
16:00 1154 J/kg -4.4 K 0 % 0 % 0 % 0 m²/s² 0 0 -3.53 3
17:00 1558 J/kg -4.3 K 0 % 0 % 0 % 0 m²/s² 0 0 -3.31 3
18:00 1814 J/kg -4.8 K 0 % 0 % 0 % 0 m²/s² 0 0 -4.62 3
19:00 2157 J/kg -4.7 K 0 % 0 % 0 % 0 m²/s² 0 0 -4.58 3
20:00 1550 J/kg -3.5 K 0 % 0 % 0 % 0 m²/s² 0 0 -3.11 3
21:00 1090 J/kg -2.7 K 0 % 0 % 0 % 0 m²/s² 0 0 -1.47 3
22:00 904 J/kg -2.8 K 0 % 0 % 0 % 0 m²/s² 0 0 -1.09 3
23:00 694 J/kg -3.2 K 0 % 0 % 0 % 0 m²/s² 0 0 -1.16 3
 06:22     20:18    Daglengte: 13:56 Morgen
00:00 658 J/kg -4.6 K 0 % 0 % 0 % 0 m²/s² 0 0 -3.07 3
01:00 555 J/kg -4.7 K 0 % 0 % 0 % 0 m²/s² 0 0 -3.83 3
02:00 322 J/kg -4.8 K 0 % 0 % 0 % 0 m²/s² 0 0 -3.21 3
03:00 361 J/kg -5.5 K 0 % 0 % 0 % 0 m²/s² 0 0 -4.21 3
04:00 285 J/kg -4.7 K 0 % 0 % 0 % 0 m²/s² 0 0 -3.35 3
05:00 361 J/kg -4.9 K 0 % 0 % 0 % 0 m²/s² 0 0 -3.82 95
06:00 296 J/kg -5.7 K 0 % 0 % 0 % 0 m²/s² 0 0 -4.5 80
07:00 259 J/kg -5.5 K 0 % 0 % 0 % 0 m²/s² 0 0 -4.81 80
08:00 442 J/kg -5.0 K 0 % 0 % 0 % 0 m²/s² 0 0 -3.98 95
09:00 554 J/kg -4.9 K 0 % 0 % 0 % 0 m²/s² 0 0 -3.91 61
10:00 713 J/kg -4.4 K 0 % 0 % 0 % 0 m²/s² 0 0 -2.93 61
11:00 649 J/kg -4.0 K 0 % 0 % 0 % 0 m²/s² 0 0 -3.07 63
12:00 0 J/kg 0.4 K 0 % 0 % 0 % 0 m²/s² 0 0 0.43 61
13:00 0 J/kg -0.6 K 0 % 0 % 0 % 0 m²/s² 0 0 0.75 95
14:00 0 J/kg -4.0 K 0 % 0 % 0 % 0 m²/s² 0 0 -2.8 95
15:00 80 J/kg -1.9 K 0 % 0 % 0 % 0 m²/s² 0 0 -1.87 80
16:00 141 J/kg -1.7 K 0 % 0 % 0 % 0 m²/s² 0 0 0.07 80
17:00 11 J/kg 0.6 K 0 % 0 % 0 % 0 m²/s² 0 0 2.91 80
18:00 3 J/kg -0.3 K 0 % 0 % 0 % 0 m²/s² 0 0 2.01 95
19:00 0 J/kg -0.6 K 0 % 0 % 0 % 0 m²/s² 0 0 2.4 95
20:00 0 J/kg -1.6 K 0 % 0 % 0 % 0 m²/s² 0 0 -0.73 95
21:00 39 J/kg -3.1 K 0 % 0 % 0 % 0 m²/s² 0 0 -2.65 95
22:00 87 J/kg -3.0 K 0 % 0 % 0 % 0 m²/s² 0 0 -2.52 95
23:00 57 J/kg -2.6 K 0 % 0 % 0 % 0 m²/s² 0 0 -2.57 80
 06:23     20:16    Daglengte: 13:53 Vrijdag 19 Aug
00:00 81 J/kg -3.0 K 0 % 0 % 0 % 0 m²/s² 0 0 -2.28 80
01:00 274 J/kg -4.1 K 0 % 0 % 0 % 0 m²/s² 0 0 -2.48 95
02:00 213 J/kg -3.6 K 0 % 0 % 0 % 0 m²/s² 0 0 -1.2 3
03:00 318 J/kg -4.2 K 0 % 0 % 0 % 0 m²/s² 0 0 0.78 80
04:00 305 J/kg -4.1 K 0 % 0 % 0 % 0 m²/s² 0 0 0.49 95
05:00 208 J/kg -4.4 K 0 % 0 % 0 % 0 m²/s² 0 0 -0.29 81
06:00 55 J/kg -4.8 K 0 % 0 % 0 % 0 m²/s² 0 0 -0.36 95
07:00 138 J/kg -6.0 K 0 % 0 % 0 % 0 m²/s² 0 0 -2.58 81
08:00 202 J/kg -6.0 K 0 % 0 % 0 % 0 m²/s² 0 0 -3.09 95
09:00 174 J/kg -5.4 K 0 % 0 % 0 % 0 m²/s² 0 0 -3.09 95
10:00 66 J/kg -4.8 K 0 % 0 % 0 % 0 m²/s² 0 0 -3.09 95
11:00 195 J/kg -3.6 K 0 % 0 % 0 % 0 m²/s² 0 0 -2.61 80
12:00 656 J/kg -4.0 K 0 % 0 % 0 % 0 m²/s² 0 0 -3.61 80
13:00 163 J/kg -3.6 K 0 % 0 % 0 % 0 m²/s² 0 0 -3 3
14:00 0 J/kg -2.8 K 0 % 0 % 0 % 0 m²/s² 0 0 -1.45 3
15:00 143 J/kg -1.9 K 0 % 0 % 0 % 0 m²/s² 0 0 0.11 3
16:00 242 J/kg -1.4 K 0 % 0 % 0 % 0 m²/s² 0 0 0.82 3
17:00 311 J/kg -1.4 K 0 % 0 % 0 % 0 m²/s² 0 0 -0.68 3
18:00 270 J/kg -1.6 K 0 % 0 % 0 % 0 m²/s² 0 0 -0.43 3
19:00 255 J/kg -1.3 K 0 % 0 % 0 % 0 m²/s² 0 0 -0.1 3
20:00 21 J/kg -0.5 K 0 % 0 % 0 % 0 m²/s² 0 0 1.15 3
21:00 0 J/kg 0.8 K 0 % 0 % 0 % 0 m²/s² 0 0 2.84 3
22:00 0 J/kg 0.9 K 0 % 0 % 0 % 0 m²/s² 0 0 2.07 3
23:00 0 J/kg 1.6 K 0 % 0 % 0 % 0 m²/s² 0 0 2.56 3
 06:24     20:15    Daglengte: 13:51 Zaterdag 20 Aug
00:00 0 J/kg 2.4 K 0 % 0 % 0 % 0 m²/s² 0 0 3.06 3
01:00 0 J/kg 3.2 K 0 % 0 % 0 % 0 m²/s² 0 0 3.5 1
02:00 0 J/kg 3.2 K 0 % 0 % 0 % 0 m²/s² 0 0 3.38 1
03:00 0 J/kg 3.0 K 0 % 0 % 0 % 0 m²/s² 0 0 3.3 0
04:00 0 J/kg 3.8 K 0 % 0 % 0 % 0 m²/s² 0 0 4.07 0
05:00 0 J/kg 4.8 K 0 % 0 % 0 % 0 m²/s² 0 0 5.16 0
06:00 0 J/kg 4.8 K 0 % 0 % 0 % 0 m²/s² 0 0 5.67 0
07:00 0 J/kg 5.4 K 0 % 0 % 0 % 0 m²/s² 0 0 6.45 0
08:00 0 J/kg 5.4 K 0 % 0 % 0 % 0 m²/s² 0 0 6.78 1
09:00 0 J/kg 4.7 K 0 % 0 % 0 % 0 m²/s² 0 0 6.41 1
10:00 0 J/kg 3.7 K 0 % 0 % 0 % 0 m²/s² 0 0 5.41 0
11:00 0 J/kg 3.2 K 0 % 0 % 0 % 0 m²/s² 0 0 4.64 0
12:00 0 J/kg 2.4 K 0 % 0 % 0 % 0 m²/s² 0 0 3.6 1
Temp Baro Wind Neerslag
  EWN Forecast EWN WRFDA DWD ICON FMI HIRLAM MET Norway GFS
 06:21     20:20    Daglengte: 13:59 Vandaag
14:00 31.9° 1012.1 hPa 2.3 m/s 0.0 mm 31.0° 1011.5 hPa 2.7 m/s 0.0 mm 31.6° 1012.1 hPa 1.3 m/s -2.0 mm 33.5° 1012.0 hPa 4.0 m/s 0.0 mm 33.0° 1011.6 hPa 2.3 m/s
17:00 32.7° 1010.7 hPa 3.9 m/s 0.0 mm 33.1° 1009.1 hPa 5.8 m/s 0.0 mm 32.8° 1010.8 hPa 1.2 m/s 0.0 mm 32.9° 1010.6 hPa 4.7 m/s 0.0 mm 28.9° 1011.6 hPa 5.0 m/s
20:00 29.3° 1010.9 hPa 5.3 m/s 0.0 mm 29.0° 1009.9 hPa 4.2 m/s 5.2 mm 29.1° 1011.3 hPa 3.0 m/s 0.0 mm 31.6° 1009.9 hPa 5.8 m/s 0.0 mm 23.1° 1012.1 hPa 1.3 m/s
23:00 26.4° 1011.4 hPa 2.9 m/s 0.0 mm 25.9° 1010.4 hPa 6.2 m/s 10.0 mm 26.4° 1011.8 hPa 1.7 m/s 0.0 mm 27.6° 1011.0 hPa 6.7 m/s 0.0 mm 21.9° 1012.9 hPa 1.2 m/s
 06:22     20:18    Daglengte: 13:56 Morgen
02:00 24.2° 1010.9 hPa 2.2 m/s 0.0 mm 25.4° 1009.9 hPa 6.2 m/s 10.4 mm 23.8° 1012.5 hPa 0.9 m/s 0.1 mm 26.1° 1010.1 hPa 7.6 m/s 0.0 mm 21.8° 1012.0 hPa 1.4 m/s
05:00 23.3° 1010.3 hPa 3.4 m/s 0.0 mm 23.1° 1010.4 hPa 3.5 m/s 10.7 mm 21.7° 1011.8 hPa 0.5 m/s 2.3 mm 24.8° 1010.2 hPa 6.1 m/s 0.0 mm 20.6° 1011.1 hPa 1.6 m/s
08:00 23.5° 1011.0 hPa 3.0 m/s 2.2 mm 24.8° 1010.3 hPa 4.9 m/s 10.7 mm 20.5° 1012.1 hPa 1.9 m/s 8.1 mm 25.2° 1010.5 hPa 6.6 m/s 0.0 mm 20.4° 1012.9 hPa 2.9 m/s
11:00 24.2° 1010.3 hPa 5.0 m/s 7.4 mm 26.0° 1008.5 hPa 3.0 m/s 10.7 mm 20.9° 1011.2 hPa 4.7 m/s 11.3 mm 29.2° 1008.6 hPa 9.6 m/s 0.0 mm 22.5° 1013.4 hPa 2.3 m/s
14:00 26.9° 1010.0 hPa 4.0 m/s 0.0 mm 28.5° 1008.1 hPa 1.2 m/s 125.3 mm 22.4° 1011.6 hPa 1.7 m/s 9.6 mm 30.2° 1009.0 hPa 5.1 m/s 0.0 mm 24.3° 1011.7 hPa 0.7 m/s
17:00 25.4° 1008.8 hPa 4.2 m/s 11.2 mm 23.3° 1009.2 hPa 6.1 m/s 165.9 mm 22.7° 1009.6 hPa 2.1 m/s 3.2 mm 30.1° 1006.5 hPa 7.2 m/s 0.0 mm 23.1° 1010.7 hPa 3.4 m/s
20:00 23.3° 1008.5 hPa 3.5 m/s 27.7 mm 23.2° 1008.3 hPa 4.3 m/s 175.1 mm 20.6° 1009.9 hPa 1.7 m/s 8.8 mm 27.2° 1006.6 hPa 6.0 m/s 0.0 mm 22.9° 1009.4 hPa 1.4 m/s
23:00 21.1° 1009.3 hPa 2.9 m/s 40.3 mm 21.6° 1009.3 hPa 3.1 m/s 178.8 mm 20.2° 1009.6 hPa 0.3 m/s 7.3 mm 24.7° 1007.5 hPa 4.2 m/s 0.0 mm 20.5° 1008.6 hPa 2.8 m/s
 06:23     20:16    Daglengte: 13:53 Vrijdag 19 Aug
02:00 20.6° 1008.2 hPa 1.9 m/s 40.3 mm 19.8° 1008.1 hPa 2.0 m/s 181.0 mm 20.4° 1008.6 hPa 0.9 m/s 3.4 mm 22.7° 1006.2 hPa 2.0 m/s 0.0 mm 18.4° 1008.3 hPa 4.3 m/s
05:00 19.5° 1007.7 hPa 1.4 m/s 27.6 mm 19.2° 1007.0 hPa 1.6 m/s 181.1 mm 19.5° 1007.8 hPa 1.4 m/s 7.8 mm 18.4° 1008.6 hPa 1.1 m/s
08:00 19.6° 1008.8 hPa 1.2 m/s 40.3 mm 20.6° 1008.2 hPa 0.4 m/s 181.1 mm 19.3° 1008.8 hPa 1.3 m/s 6.5 mm 18.6° 1010.2 hPa 0.9 m/s
11:00 20.2° 1009.7 hPa 2.8 m/s 40.7 mm 19.1° 1009.5 hPa 3.7 m/s 187.5 mm 20.2° 1009.8 hPa 1.2 m/s 3.6 mm 21.6° 1010.8 hPa 2.2 m/s
14:00 23.0° 1009.8 hPa 2.0 m/s 36.3 mm 23.6° 1009.1 hPa 3.9 m/s 201.8 mm 22.4° 1010.1 hPa 0.6 m/s 0.7 mm 25.6° 1009.8 hPa 3.4 m/s
17:00 24.9° 1009.5 hPa 1.1 m/s 45.3 mm 26.8° 1009.3 hPa 1.4 m/s 202.7 mm 24.4° 1009.6 hPa 0.7 m/s 0.0 mm 25.9° 1009.2 hPa 3.4 m/s
20:00 23.7° 1009.8 hPa 1.4 m/s 0.0 mm 24.2° 1008.6 hPa 2.7 m/s 202.7 mm 22.8° 1010.1 hPa 1.1 m/s 0.0 mm 22.4° 1009.8 hPa 1.7 m/s
23:00 21.5° 1011.3 hPa 1.2 m/s 0.0 mm 21.7° 1010.1 hPa 1.7 m/s 202.7 mm 20.8° 1011.5 hPa 0.8 m/s 0.0 mm 20.8° 1011.1 hPa 1.8 m/s
 06:24     20:15    Daglengte: 13:51 Zaterdag 20 Aug
02:00 20.3° 1011.2 hPa 0.9 m/s 0.0 mm 22.9° 1010.8 hPa 0.7 m/s 202.7 mm 19.6° 1011.3 hPa 0.9 m/s 0.0 mm 20.1° 1011.7 hPa 2.1 m/s
05:00 19.0° 1011.0 hPa 1.4 m/s 0.0 mm 21.2° 1011.6 hPa 2.4 m/s 202.7 mm 18.4° 1010.8 hPa 1.2 m/s 0.0 mm 19.2° 1012.1 hPa 1.3 m/s
08:00 20.3° 1012.4 hPa 0.9 m/s 0.0 mm 23.9° 1012.7 hPa 2.4 m/s 202.7 mm 19.4° 1012.3 hPa 0.5 m/s 0.0 mm 21.5° 1012.6 hPa 1.1 m/s
11:00 25.6° 1012.9 hPa 0.9 m/s 0.0 mm 28.3° 1012.7 hPa 2.0 m/s 202.7 mm 24.9° 1013.0 hPa 0.6 m/s 0.0 mm 26.2° 1013.4 hPa 1.1 m/s
14:00 29.0° 1012.5 hPa 1.5 m/s 0.0 mm 31.0° 1012.5 hPa 2.1 m/s 202.7 mm 28.5° 1012.5 hPa 1.3 m/s 0.0 mm 29.3° 1013.4 hPa 1.9 m/s
17:00 29.5° 1012.8 hPa 1.7 m/s 52.4 mm 29.5° 1012.8 hPa 1.7 m/s 52.4 mm
20:00 24.8° 1012.8 hPa 1.5 m/s 52.4 mm 24.8° 1012.8 hPa 1.5 m/s 52.4 mm
23:00 23.2° 1013.8 hPa 2.0 m/s 52.4 mm 23.2° 1013.8 hPa 2.0 m/s 52.4 mm
 06:26     20:13    Daglengte: 13:47 Zondag 21 Aug
02:00 22.0° 1014.2 hPa 1.8 m/s 52.4 mm 22.0° 1014.2 hPa 1.8 m/s 52.4 mm
05:00 21.1° 1014.1 hPa 2.1 m/s 52.4 mm 21.1° 1014.1 hPa 2.1 m/s 52.4 mm
08:00 23.0° 1014.6 hPa 0.8 m/s 52.4 mm 23.0° 1014.6 hPa 0.8 m/s 52.4 mm
11:00 27.3° 1014.4 hPa 1.8 m/s 52.4 mm 27.3° 1014.4 hPa 1.8 m/s 52.4 mm
14:00 30.2° 1013.1 hPa 2.1 m/s 52.4 mm 30.2° 1013.1 hPa 2.1 m/s 52.4 mm
17:00 30.4° 1011.4 hPa 0.6 m/s 52.5 mm 30.4° 1011.4 hPa 0.6 m/s 52.5 mm
20:00 26.0° 1011.0 hPa 2.2 m/s 52.5 mm 26.0° 1011.0 hPa 2.2 m/s 52.5 mm
23:00 22.5° 1011.6 hPa 2.5 m/s 52.7 mm 22.5° 1011.6 hPa 2.5 m/s 52.7 mm
 06:27     20:11    Daglengte: 13:44 Maandag 22 Aug
02:00 20.7° 1011.6 hPa 2.1 m/s 53.7 mm 20.7° 1011.6 hPa 2.1 m/s 53.7 mm
05:00 19.8° 1011.6 hPa 2.6 m/s 55.0 mm 19.8° 1011.6 hPa 2.6 m/s 55.0 mm
08:00 20.9° 1013.0 hPa 1.9 m/s 55.7 mm 20.9° 1013.0 hPa 1.9 m/s 55.7 mm
11:00 25.9° 1012.9 hPa 3.1 m/s 55.7 mm 25.9° 1012.9 hPa 3.1 m/s 55.7 mm
14:00 26.9° 1013.0 hPa 3.2 m/s 56.0 mm 26.9° 1013.0 hPa 3.2 m/s 56.0 mm
17:00 28.1° 1011.7 hPa 3.6 m/s 56.0 mm 28.1° 1011.7 hPa 3.6 m/s 56.0 mm
20:00 23.9° 1012.2 hPa 2.2 m/s 56.1 mm 23.9° 1012.2 hPa 2.2 m/s 56.1 mm
23:00 22.9° 1012.9 hPa 2.5 m/s 56.1 mm 22.9° 1012.9 hPa 2.5 m/s 56.1 mm
 06:28     20:10    Daglengte: 13:42 Dinsdag 23 Aug
02:00 21.7° 1012.9 hPa 1.5 m/s 56.1 mm 21.7° 1012.9 hPa 1.5 m/s 56.1 mm
05:00 21.5° 1012.8 hPa 1.8 m/s 56.1 mm 21.5° 1012.8 hPa 1.8 m/s 56.1 mm
08:00 22.9° 1014.0 hPa 0.7 m/s 56.1 mm 22.9° 1014.0 hPa 0.7 m/s 56.1 mm
11:00 27.3° 1014.2 hPa 1.6 m/s 56.1 mm 27.3° 1014.2 hPa 1.6 m/s 56.1 mm
14:00 30.1° 1013.2 hPa 1.9 m/s 56.1 mm 30.1° 1013.2 hPa 1.9 m/s 56.1 mm
17:00 30.3° 1012.6 hPa 1.3 m/s 56.1 mm 30.3° 1012.6 hPa 1.3 m/s 56.1 mm
20:00 25.5° 1013.0 hPa 2.2 m/s 56.1 mm 25.5° 1013.0 hPa 2.2 m/s 56.1 mm
23:00 23.7° 1014.2 hPa 1.6 m/s 56.1 mm 23.7° 1014.2 hPa 1.6 m/s 56.1 mm
 06:29     20:08    Daglengte: 13:39 Woensdag 24 Aug
02:00 23.0° 1014.2 hPa 1.9 m/s 56.1 mm 23.0° 1014.2 hPa 1.9 m/s 56.1 mm
05:00 22.4° 1013.8 hPa 1.6 m/s 56.1 mm 22.4° 1013.8 hPa 1.6 m/s 56.1 mm
08:00 23.5° 1014.4 hPa 0.6 m/s 56.1 mm 23.5° 1014.4 hPa 0.6 m/s 56.1 mm
11:00 28.6° 1014.5 hPa 1.4 m/s 56.1 mm 28.6° 1014.5 hPa 1.4 m/s 56.1 mm
14:00 31.0° 1013.6 hPa 2.3 m/s 56.1 mm 31.0° 1013.6 hPa 2.3 m/s 56.1 mm
20:00 26.2° 1013.0 hPa 2.1 m/s 56.1 mm 26.2° 1013.0 hPa 2.1 m/s 56.1 mm
 06:30     20:06    Daglengte: 13:36 Donderdag 25 Aug
02:00 23.7° 1014.2 hPa 2.2 m/s 56.1 mm 23.7° 1014.2 hPa 2.2 m/s 56.1 mm
08:00 24.5° 1014.3 hPa 0.9 m/s 56.1 mm 24.5° 1014.3 hPa 0.9 m/s 56.1 mm
14:00 32.2° 1014.2 hPa 3.3 m/s 56.1 mm 32.2° 1014.2 hPa 3.3 m/s 56.1 mm
20:00 26.6° 1013.8 hPa 2.1 m/s 56.1 mm 26.6° 1013.8 hPa 2.1 m/s 56.1 mm
 06:32     20:04    Daglengte: 13:32 Vrijdag 26 Aug
02:00 23.8° 1015.3 hPa 1.2 m/s 56.1 mm 23.8° 1015.3 hPa 1.2 m/s 56.1 mm
08:00 25.1° 1015.8 hPa 1.0 m/s 56.1 mm 25.1° 1015.8 hPa 1.0 m/s 56.1 mm
14:00 33.8° 1015.0 hPa 1.8 m/s 56.1 mm 33.8° 1015.0 hPa 1.8 m/s 56.1 mm
20:00 28.5° 1014.4 hPa 2.3 m/s 56.1 mm 28.5° 1014.4 hPa 2.3 m/s 56.1 mm
 06:33     20:02    Daglengte: 13:29 Zaterdag 27 Aug
02:00 25.3° 1016.0 hPa 1.9 m/s 56.1 mm 25.3° 1016.0 hPa 1.9 m/s 56.1 mm
08:00 24.8° 1017.6 hPa 2.5 m/s 0.1 mm
14:00 33.7° 1016.2 hPa 1.8 m/s 0.1 mm
20:00 30.2° 1016.6 hPa 1.3 m/s 0.1 mm
 06:34     20:01    Daglengte: 13:27 Zondag 28 Aug
02:00 25.3° 1018.7 hPa 2.8 m/s 0.5 mm
08:00 24.6° 1019.0 hPa 2.4 m/s 0.4 mm
14:00 33.6° 1018.0 hPa 1.7 m/s 0.1 mm
20:00 30.3° 1017.8 hPa 0.9 m/s 0.2 mm
 06:35     19:59    Daglengte: 13:24 Maandag 29 Aug
02:00 25.3° 1019.7 hPa 2.7 m/s 0.2 mm
08:00 24.5° 1019.7 hPa 2.0 m/s 0.3 mm
14:00 33.5° 1018.4 hPa 1.7 m/s 0.0 mm
20:00 30.3° 1017.8 hPa 0.5 m/s 0.1 mm
 06:37     19:57    Daglengte: 13:20 Dinsdag 30 Aug
02:00 25.1° 1019.4 hPa 2.5 m/s 0.8 mm
08:00 24.4° 1019.2 hPa 2.1 m/s 0.4 mm
14:00 33.0° 1017.5 hPa 2.0 m/s 0.1 mm
20:00 29.9° 1016.8 hPa 0.4 m/s 0.3 mm
 06:38     19:55    Daglengte: 13:17 Woensdag 31 Aug
02:00 24.9° 1018.3 hPa 2.3 m/s 0.9 mm
08:00 24.2° 1017.8 hPa 2.0 m/s 0.5 mm
14:00 32.7° 1016.1 hPa 1.7 m/s 0.2 mm
20:00 29.3° 1015.5 hPa 0.8 m/s 0.5 mm
 06:39     19:53    Daglengte: 13:14 Donderdag 01 Sep
02:00 24.4° 1017.1 hPa 2.4 m/s 1.3 mm
08:00 23.7° 1017.0 hPa 1.9 m/s 0.4 mm
FMI Hirlam - 7.5 km EWN WRFDA - 12 km DWD ICON - 7 km GFS - 25 km Basiskaart






























































Updatetijd (Europe/Amsterdam) Resolutie Lengte Stap
FMI Hirlam 07:15, 13:15, 19:15, 01:15 7.5 km 49h 1h
EWN WRFDA 10:15, 16:15, 22:15, 04:15 12 km 73h 1h
DWD ICON 11:45, 17:45, 23:45, 05:45 7 km 75h 1h
GFS 08:15, 14:15, 20:15, 02:15 25 km 237h 3h
30+ mm
25-30 mm
20-25 mm
15-20 mm
10-15 mm
6-10 mm
4-6 mm
2-4 mm
1-2 mm
0.5-1 mm
0.2-0.5 mm
0.1-0.2 mm
30+ mm
25-30 mm
20-25 mm
15-20 mm
10-15 mm
6-10 mm
4-6 mm
2-4 mm
1-2 mm
0.5-1 mm
0.2-0.5 mm
0.1-0.2 mm
Sneeuwval
Natte sneeuw
Hagel
Vorst
30+ mm
25-30 mm
20-25 mm
15-20 mm
10-15 mm
6-10 mm
4-6 mm
2-4 mm
1-2 mm
0.5-1 mm
0.2-0.5 mm
0.1-0.2 mm
Sneeuwval
Natte sneeuw
Hagel
Vorst
Onweer
50 mm
40 mm
30 mm
26 mm
22 mm
18 mm
14 mm
10 mm
9 mm
8 mm
7 mm
6 mm
5 mm
4.5 mm
4 mm
3.5 mm
3 mm
2.5 mm
2 mm
1.5 mm
1 mm
0.8 mm
0.6 mm
0.4 mm
0.2 mm
0.05 mm
35°
30°
25°
20°
15°
10°
-5°
-10°
-15°
-20°
-25°
-30°
-35°
33> m/s
29 m/s
25 m/s
21 m/s
17 m/s
14 m/s
11 m/s
8 m/s
5 m/s
3 m/s
0 m/s
2600 J/kg
2400 J/kg
2200 J/kg
2000 J/kg
1800 J/kg
1600 J/kg
1400 J/kg
1200 J/kg
1000 J/kg
800 J/kg
600 J/kg
400 J/kg
200 J/kg
70 dBZ
65 dBZ
60 dBZ
55 dBZ
50 dBZ
45 dBZ
40 dBZ
35 dBZ
30 dBZ
25 dBZ
20 dBZ
15 dBZ
10 dBZ
5 dBZ
-1 K
-2 K
-3 K
-4 K
-5 K
-6 K
-7 K
-8 K
-9 K
950 m²/s²
900 m²/s²
850 m²/s²
800 m²/s²
750 m²/s²
700 m²/s²
650 m²/s²
600 m²/s²
550 m²/s²
500 m²/s²
450 m²/s²
400 m²/s²
350 m²/s²
300 m²/s²
250 m²/s²
200 m²/s²
150 m²/s²
100 m²/s²
46 m/s
44 m/s
42 m/s
40 m/s
38 m/s
36 m/s
34 m/s
32 m/s
30 m/s
28 m/s
26 m/s
24 m/s
22 m/s
20 m/s
16 m/s
12 m/s
8 m/s
4 m/s
30 m/s
28 m/s
26 m/s
24 m/s
22 m/s
20 m/s
18 m/s
16 m/s
14 m/s
12 m/s
10 m/s
8 m/s
6 m/s
4 m/s
2 m/s
3.0
2.8
2.6
2.4
2.2
2.0
1.8
1.6
1.4
1.2
1.0
0.8
0.6
0.4
0.2
15